Temp
60 60 60 59 59 59 60 59 59 59 59 60 60 60 60 60 59 51 48 63 60 68 70 69 70 70 67 61 63 65 50 45 52 54 61 67 63 69 77 74 78 80 77 81 81
59 59 59 59 58 58 59 59 59 59 59 59 60 60 59 59 50 47 61 68 68 70 66 66 63 67 59 58 60 56 46 51 60 63 61 66 65 65 69 71 72 74 81 81 80
59 59 59 59 59 59 59 58 58 59 59 60 60 59 59 58 47 60 72 69 70 70 67 67 65 63 55 56 58 56 51 56 60 64 66 66 68 70 66 64 68 70 76 79 76
58 59 59 58 58 58 59 59 59 59 59 58 59 58 59 52 49 66 73 70 71 69 66 63 60 52 49 52 58 52 60 62 63 65 65 63 69 69 69 71 74 77 76 79 76
58 58 58 58 58 58 58 58 58 58 58 58 58 59 52 46 53 69 72 71 68 67 64 61 56 54 49 53 55 54 59 63 65 65 63 67 65 65 69 74 78 78 79 76 74
57 58 58 58 58 58 58 58 58 58 58 58 58 59 48 45 69 71 69 67 67 63 62 62 60 60 54 53 52 56 59 60 61 62 61 62 66 64 70 74 75 75 74 73 73
57 57 57 58 58 57 58 57 57 56 58 58 58 57 48 54 69 68 68 64 67 69 66 67 66 61 58 54 57 58 53 56 57 57 58 61 58 62 68 72 71 73 75 73 73
57 56 57 57 57 58 58 57 57 57 58 58 59 52 47 65 65 66 64 67 70 70 69 71 69 61 56 57 57 51 49 42 51 57 61 60 51 63 67 68 68 70 71 72 73
57 56 56 57 57 57 57 56 57 58 60 59 49 47 51 68 66 70 71 69 70 71 70 77 65 57 56 47 43 43 38 42 48 57 58 56 52 61 65 64 63 64 67 69 70
57 56 56 56 56 56 55 56 58 57 59 60 60 49 59 64 70 73 70 72 68 68 65 62 54 49 45 43 34 39 40 45 45 54 54 53 54 59 62 62 62 65 64 65 67
57 56 56 56 56 55 51 51 52 50 52 56 59 57 64 71 75 71 73 68 65 61 51 54 47 42 48 49 52 49 46 45 52 59 51 53 54 56 59 59 60 60 59 62 64
56 56 56 56 56 55 49 52 59 58 50 59 62 62 69 69 62 68 74 63 59 51 53 49 43 53 55 54 52 49 46 46 52 57 52 51 51 57 57 59 60 59 58 60 59
56 56 56 56 55 50 53 60 65 60 48 58 62 62 63 65 60 62 69 63 57 51 51 46 52 59 56 53 51 49 45 47 47 53 53 49 46 50 55 58 62 61 58 60 61
55 56 56 56 52 53 56 64 62 60 41 53 59 64 66 66 60 71 71 64 55 52 51 49 58 56 53 51 51 43 53 52 51 45 38 50 37 48 50 53 56 59 58 60 61
55 56 56 55 47 54 63 60 60 59 33 60 60 72 67 62 63 65 70 63 54 54 52 49 52 51 50 52 54 48 54 51 49 43 37 41 34 42 48 49 54 56 59 58 59
56 56 56 51 46 54 60 59 60 43 34 57 64 61 58 60 62 65 64 65 64 55 52 53 57 53 52 56 56 56 49 45 41 38 30 41 38 41 48 49 52 57 59 60 61
55 55 52 57 56 58 59 57 41 34 58 55 56 60 56 54 57 59 56 51 47 40 40 48 48 53 56 48 51 47 40 27 27 27 32 43 38 44 49 55 55 55 56 57 59
54 53 52 56 53 59 58 49 34 49 52 60 57 55 51 53 52 54 51 45 51 47 38 37 36 48 53 49 43 40 39 28 25 25 30 38 32 41 53 56 56 55 54 54 52
52 49 50 56 56 58 53 38 39 48 57 55 55 48 47 52 52 51 47 46 49 48 39 36 38 51 52 52 49 40 33 43 32 33 28 31 39 50 53 52 54 54 55 53 53
46 46 51 60 60 56 47 42 47 59 59 58 48 51 43 46 45 45 44 51 50 52 49 43 33 47 51 51 50 42 44 33 33 25 23 29 32 35 45 48 51 51 49 52 53
44 45 58 62 61 52 40 44 53 61 59 54 51 49 49 46 47 46 48 52 54 50 48 42 37 39 44 40 38 38 38 38 36 33 23 21 30 44 44 47 49 50 54 52 53
41 42 59 60 47 46 45 52 54 59 60 57 55 52 49 48 46 46 45 49 57 52 43 40 35 30 37 45 48 45 40 39 29 29 33 30 29 47 47 51 49 50 55 58 54
37 39 55 57 37 39 49 52 56 55 55 55 51 54 51 45 40 46 48 56 56 50 43 42 32 26 30 37 42 38 40 39 36 34 29 24 29 50 51 49 47 47 50 57 59
40 38 44 46 45 42 42 47 48 58 54 55 52 53 49 46 46 43 46 53 55 53 55 48 33 32 25 32 34 33 38 41 38 30 30 33 37 45 45 45 47 46 47 50 53
41 37 40 34 41 41 43 45 44 45 52 53 50 50 46 41 44 42 44 47 51 53 46 40 33 34 37 40 40 39 39 40 34 38 32 38 37 41 43 44 45 45 47 49 51
38 37 40 36 40 40 42 41 42 45 43 43 45 48 49 41 43 41 42 41 41 43 40 38 31 34 33 41 41 38 40 40 42 43 41 41 38 43 46 46 45 45 48 49 51
41 43 42 40 41 41 41 43 43 43 44 46 47 44 44 47 51 49 48 46 45 41 37 35 31 29 28 37 36 30 36 38 39 42 38 32 37 43 42 44 43 43 47 49 51
MSLP
1018.63 1018.26 1017.89 1017.57 1017.32 1017.01 1016.64 1016.41 1016.19 1015.96 1015.76 1015.62 1015.37 1015.12 1015.04 1014.84 1014.58 1014.22 1013.26 1010.64 1010.66 1010.32 1010.46 1010.53 1010.55 1010.54 1010.77 1010.80 1010.56 1010.86 1011.95 1012.25 1011.45 1010.76 1009.30 1008.18 1008.32 1007.49 1006.83 1006.55 1005.80 1005.80 1005.68 1004.08 1004.66
1018.52 1018.11 1017.69 1017.31 1017.05 1016.76 1016.47 1016.23 1016.01 1015.73 1015.48 1015.31 1015.16 1015.02 1014.78 1014.46 1014.17 1013.09 1009.81 1009.70 1009.86 1010.20 1010.57 1010.59 1010.56 1010.57 1010.78 1010.66 1010.72 1011.05 1011.75 1011.24 1010.57 1009.80 1009.37 1008.69 1008.46 1007.89 1007.31 1006.76 1006.34 1005.51 1005.01 1004.20 1004.54
1018.35 1017.89 1017.46 1017.07 1016.71 1016.44 1016.17 1015.98 1015.79 1015.52 1015.22 1015.01 1014.87 1014.84 1014.62 1014.42 1013.69 1009.92 1008.23 1009.01 1009.59 1010.03 1010.16 1010.21 1010.27 1010.14 1010.53 1010.63 1010.68 1010.65 1010.70 1010.47 1009.99 1009.55 1009.38 1008.64 1007.84 1007.95 1007.33 1006.71 1006.46 1005.99 1005.20 1004.68 1005.16
1018.19 1017.69 1017.20 1016.77 1016.40 1016.12 1015.82 1015.62 1015.47 1015.29 1015.11 1014.95 1014.76 1014.57 1014.27 1014.31 1012.08 1008.55 1007.90 1008.44 1009.15 1009.61 1010.22 1010.14 1010.22 1010.29 1010.49 1010.58 1010.35 1010.48 1010.12 1009.91 1009.25 1009.17 1008.93 1008.36 1007.53 1007.16 1007.03 1006.50 1006.00 1005.67 1005.27 1004.92 1004.91
1018.00 1017.46 1016.96 1016.52 1016.15 1015.82 1015.55 1015.37 1015.26 1015.11 1014.98 1014.90 1014.73 1014.46 1014.16 1013.52 1010.84 1008.52 1008.45 1008.79 1009.33 1009.73 1009.92 1010.00 1010.08 1010.24 1010.36 1010.20 1010.14 1010.24 1009.87 1009.61 1009.03 1008.74 1008.40 1007.97 1007.60 1007.32 1005.75 1006.14 1005.60 1005.09 1004.83 1004.74 1004.80
1017.79 1017.26 1016.76 1016.37 1015.97 1015.60 1015.28 1015.12 1014.94 1014.86 1014.75 1014.66 1014.59 1014.49 1014.22 1012.27 1008.83 1008.66 1008.93 1009.39 1009.49 1009.82 1009.82 1009.90 1009.84 1009.86 1010.17 1010.14 1010.17 1009.89 1009.69 1009.48 1008.96 1008.50 1008.20 1008.02 1007.33 1006.85 1005.05 1005.32 1004.93 1004.72 1004.47 1004.37 1004.23
1017.50 1017.02 1016.52 1016.06 1015.69 1015.32 1015.00 1014.74 1014.63 1014.56 1014.45 1014.49 1014.43 1014.37 1013.75 1010.45 1008.76 1008.81 1009.05 1009.36 1009.44 1009.65 1009.81 1009.65 1009.56 1009.98 1010.19 1010.34 1010.21 1010.09 1010.07 1009.47 1008.99 1008.48 1008.10 1007.51 1007.18 1005.90 1005.56 1005.19 1004.94 1004.48 1004.21 1003.97 1004.27
1017.25 1016.77 1016.29 1015.77 1015.34 1014.92 1014.60 1014.35 1014.22 1014.17 1014.08 1014.26 1014.32 1014.22 1012.24 1009.32 1008.94 1009.00 1009.16 1009.08 1008.95 1009.14 1009.34 1009.01 1009.23 1009.65 1009.96 1010.25 1010.40 1010.54 1010.41 1010.07 1009.03 1008.55 1008.03 1007.83 1006.76 1006.04 1005.57 1005.56 1005.23 1004.85 1004.45 1003.95 1003.32
1017.01 1016.47 1016.02 1015.52 1015.02 1014.55 1014.15 1013.94 1013.76 1013.69 1013.65 1014.04 1014.29 1013.81 1010.84 1008.78 1008.77 1008.11 1008.48 1008.61 1008.52 1008.71 1008.65 1008.63 1008.95 1009.69 1010.07 1010.81 1011.35 1011.25 1011.21 1010.43 1009.58 1008.54 1008.20 1007.96 1006.65 1006.20 1005.69 1005.57 1005.36 1005.17 1004.47 1004.21 1003.66
1016.89 1016.27 1015.74 1015.22 1014.79 1014.34 1013.82 1013.29 1013.33 1013.47 1013.70 1013.91 1013.54 1013.24 1009.87 1008.27 1007.55 1007.37 1007.76 1008.15 1008.63 1008.70 1008.68 1008.89 1009.75 1010.36 1011.24 1011.79 1012.12 1011.80 1011.42 1010.54 1009.90 1008.85 1008.30 1007.95 1006.55 1006.16 1005.76 1005.61 1004.98 1004.48 1004.19 1003.83 1003.60
1016.75 1016.10 1015.50 1014.89 1014.41 1014.14 1013.93 1013.45 1013.60 1013.41 1012.96 1011.81 1011.03 1010.37 1008.77 1007.66 1006.72 1006.89 1007.24 1008.08 1008.68 1008.90 1009.45 1009.85 1010.60 1010.92 1011.07 1011.26 1011.16 1011.39 1011.17 1010.54 1009.41 1008.45 1008.47 1007.79 1006.82 1006.04 1005.82 1005.42 1004.73 1004.01 1004.25 1003.74 1003.45
1016.46 1015.82 1015.13 1014.52 1014.00 1013.70 1013.95 1013.17 1012.06 1011.91 1011.15 1009.71 1009.13 1008.93 1008.12 1008.00 1007.83 1006.95 1006.88 1007.92 1008.42 1009.08 1009.73 1010.63 1010.43 1010.18 1010.34 1010.66 1010.92 1010.92 1010.75 1010.09 1008.93 1008.26 1008.21 1007.69 1007.04 1005.85 1005.61 1005.18 1004.58 1004.07 1004.10 1003.85 1003.61
1016.14 1015.49 1014.61 1013.98 1013.59 1013.49 1012.98 1011.84 1010.85 1011.06 1011.03 1008.58 1008.01 1007.63 1007.47 1007.77 1007.66 1006.92 1006.95 1007.44 1008.27 1009.10 1009.72 1010.43 1009.48 1009.47 1009.98 1010.01 1010.27 1010.13 1010.11 1009.55 1009.05 1008.27 1007.84 1007.67 1007.16 1006.10 1005.42 1004.98 1004.62 1004.18 1004.03 1004.11 1003.61
1015.71 1015.01 1014.35 1013.41 1013.47 1012.91 1012.01 1010.63 1010.65 1010.71 1010.72 1008.13 1007.01 1006.13 1006.51 1006.80 1006.64 1005.85 1006.31 1007.28 1008.13 1008.61 1009.61 1009.95 1008.87 1009.24 1009.30 1009.58 1009.57 1009.57 1009.18 1009.12 1008.94 1008.95 1008.86 1007.91 1007.40 1006.51 1005.49 1005.18 1004.83 1004.40 1004.01 1003.74 1003.78
1015.14 1014.52 1013.92 1013.74 1013.38 1012.45 1010.93 1010.47 1010.44 1010.66 1009.65 1007.05 1006.09 1005.26 1005.67 1006.35 1005.90 1005.46 1005.65 1006.75 1007.52 1008.07 1009.13 1008.67 1008.59 1008.77 1009.04 1008.90 1009.08 1009.32 1009.22 1009.34 1009.24 1009.45 1009.35 1008.71 1008.47 1006.08 1005.62 1005.05 1004.45 1004.12 1003.87 1003.65 1003.64
1014.72 1013.89 1013.47 1013.42 1013.45 1011.31 1010.56 1010.42 1010.43 1011.01 1008.57 1006.36 1005.57 1005.54 1006.11 1006.16 1005.97 1005.88 1006.04 1006.39 1006.78 1007.96 1008.44 1008.56 1008.53 1008.63 1008.78 1008.85 1009.10 1009.40 1009.66 1009.89 1010.12 1010.34 1010.08 1008.61 1008.65 1006.43 1005.17 1004.73 1004.08 1003.61 1003.63 1003.23 1002.67
1014.08 1013.15 1013.00 1012.66 1011.80 1010.81 1010.53 1010.72 1011.25 1010.19 1007.66 1006.92 1006.52 1006.22 1006.26 1006.57 1006.58 1006.66 1006.66 1007.17 1007.73 1008.35 1008.71 1008.96 1008.88 1008.84 1008.83 1009.11 1009.50 1010.25 1010.96 1011.78 1011.44 1011.22 1009.79 1008.83 1008.44 1005.68 1004.50 1004.08 1003.94 1003.95 1003.81 1003.00 1002.50
1013.65 1012.40 1012.06 1011.51 1011.23 1010.74 1010.78 1011.34 1011.13 1009.45 1008.18 1007.18 1006.83 1006.71 1006.94 1007.33 1007.45 1007.43 1007.51 1007.95 1008.13 1008.58 1009.24 1009.57 1009.53 1009.17 1009.18 1009.51 1010.35 1011.05 1011.94 1012.83 1012.23 1011.68 1010.58 1009.53 1007.90 1005.75 1004.50 1003.78 1003.62 1004.10 1003.83 1003.17 1002.33
1013.48 1012.05 1011.85 1010.59 1010.75 1011.03 1011.39 1011.42 1010.58 1009.53 1008.65 1007.84 1007.26 1007.23 1007.67 1007.83 1007.93 1008.02 1008.21 1008.45 1008.72 1009.08 1009.88 1010.48 1010.53 1009.83 1009.72 1009.95 1010.60 1011.33 1012.07 1012.21 1012.84 1012.44 1012.06 1010.05 1007.93 1006.12 1004.80 1004.08 1003.92 1003.89 1004.02 1003.92 1002.85
1014.45 1013.16 1011.44 1010.37 1010.53 1010.99 1011.71 1011.29 1010.43 1009.31 1008.65 1007.88 1007.76 1007.77 1008.22 1008.59 1008.79 1008.86 1008.69 1008.71 1009.02 1009.39 1009.70 1010.68 1011.02 1010.59 1010.27 1010.32 1010.65 1011.25 1011.98 1012.73 1012.93 1012.48 1011.92 1010.31 1008.75 1007.16 1005.74 1004.89 1004.55 1003.94 1004.46 1004.25 1003.43
1014.76 1013.72 1011.35 1010.62 1010.61 1011.84 1012.17 1011.58 1010.39 1009.41 1008.82 1008.42 1008.05 1008.27 1008.71 1009.07 1009.24 1009.24 1008.91 1008.81 1008.93 1009.69 1010.21 1011.08 1011.97 1011.72 1011.25 1011.06 1011.10 1011.72 1012.13 1013.14 1013.08 1012.82 1012.07 1010.80 1008.61 1007.00 1006.82 1006.15 1004.97 1004.39 1003.82 1004.01 1003.93
1015.94 1014.53 1011.49 1010.81 1011.92 1012.74 1012.59 1012.04 1010.77 1009.59 1009.18 1008.50 1008.36 1008.63 1009.04 1009.38 1009.52 1009.42 1009.13 1008.88 1008.87 1009.59 1010.80 1011.86 1012.56 1012.91 1012.35 1011.52 1011.23 1011.50 1011.98 1012.78 1013.32 1013.12 1012.36 1011.38 1009.18 1007.90 1007.20 1007.15 1006.08 1005.29 1004.11 1003.55 1003.26
1017.28 1015.83 1012.21 1011.72 1013.30 1013.80 1013.28 1012.55 1011.67 1010.76 1009.91 1009.35 1009.35 1009.35 1009.54 1009.69 1009.90 1009.63 1009.36 1009.05 1009.15 1009.87 1010.79 1011.88 1013.08 1013.77 1013.10 1012.46 1011.90 1011.95 1012.24 1012.76 1013.22 1013.21 1012.28 1011.70 1009.45 1007.72 1007.32 1007.41 1006.98 1006.43 1005.43 1004.27 1003.50
1017.79 1017.08 1015.07 1014.24 1014.72 1014.76 1014.35 1013.43 1012.58 1011.74 1011.12 1010.45 1010.29 1010.02 1010.21 1010.17 1010.12 1010.06 1009.86 1009.69 1009.70 1010.00 1010.63 1011.57 1013.00 1013.64 1013.70 1013.04 1012.70 1012.42 1012.03 1012.08 1012.34 1012.74 1011.82 1010.69 1009.20 1008.07 1007.87 1007.63 1007.14 1006.94 1006.38 1005.54 1004.54
1018.27 1018.46 1017.88 1016.82 1015.92 1015.91 1015.14 1014.28 1013.58 1012.87 1012.20 1011.47 1010.99 1011.36 1011.22 1010.95 1010.72 1010.58 1010.53 1010.58 1010.49 1010.78 1011.40 1012.20 1013.12 1013.45 1013.16 1012.72 1012.33 1011.95 1011.60 1011.33 1011.48 1011.03 1011.10 1009.72 1009.40 1008.85 1008.51 1008.16 1007.87 1007.41 1006.99 1006.36 1005.34
1019.06 1018.92 1018.36 1017.75 1016.68 1016.17 1015.56 1014.92 1014.42 1013.91 1014.03 1013.12 1012.37 1012.05 1011.67 1011.33 1010.99 1010.83 1010.93 1011.13 1011.25 1011.48 1011.97 1012.77 1013.30 1013.49 1013.18 1012.48 1012.11 1011.60 1011.20 1010.83 1010.44 1010.19 1009.96 1009.68 1009.24 1008.94 1008.58 1008.30 1008.23 1007.96 1007.53 1006.65 1005.61
1019.27 1018.95 1018.76 1017.99 1017.26 1016.67 1015.96 1015.46 1015.13 1015.26 1014.56 1013.99 1013.34 1012.58 1011.69 1010.77 1010.41 1010.43 1010.63 1010.90 1011.10 1011.66 1012.49 1013.19 1013.59 1014.10 1013.49 1012.74 1012.17 1011.42 1010.93 1010.87 1010.68 1010.36 1010.32 1009.95 1009.37 1009.05 1008.83 1008.74 1008.52 1008.10 1007.53 1006.62 1005.78
Wind_Speed
17 17 16 15 15 15 14 14 13 13 12 13 14 13 13 13 14 3 8 13 9 13 6 3 3 4 3 2 3 4 2 4 7 8 13 10 4 1 3 8 8 2 5 9 10
17 16 15 14 14 13 13 13 13 12 12 11 13 13 13 13 4 8 14 11 15 2 4 4 1 5 2 3 2 5 4 8 5 6 6 10 4 5 6 15 12 15 6 3 7
18 17 16 15 14 13 12 12 12 12 11 11 11 11 11 10 4 8 6 18 13 10 3 1 1 1 2 2 4 5 7 5 5 7 9 13 13 4 5 13 9 9 6 6 5
18 17 16 15 15 13 13 12 11 11 10 10 9 9 11 1 2 2 4 15 11 6 2 3 2 2 1 4 5 3 5 6 7 8 7 8 11 11 8 14 11 14 8 11 9
18 18 18 16 15 13 12 11 10 10 9 8 8 6 3 3 10 3 9 11 6 6 4 3 2 3 3 3 1 5 5 6 10 10 8 9 14 13 23 12 14 15 14 11 10
18 18 18 16 15 13 11 10 9 9 8 7 6 4 1 2 4 5 8 6 3 3 4 4 5 4 3 3 3 2 5 6 6 8 5 7 14 6 13 11 16 13 12 8 11
18 18 17 16 15 13 12 10 9 9 8 6 5 3 0 13 3 3 9 6 4 6 5 5 4 3 4 4 2 4 5 7 4 3 4 1 7 14 4 6 10 10 9 8 10
19 18 18 17 15 14 13 11 10 9 7 6 5 2 8 5 1 3 3 5 6 6 4 6 5 3 3 2 7 5 2 4 4 1 6 6 12 13 6 8 11 11 10 10 10
19 18 18 17 16 15 14 14 11 8 2 7 3 2 9 3 2 7 7 7 1 3 7 8 2 1 5 4 5 5 5 6 7 6 4 6 11 7 7 6 10 11 11 11 11
21 19 19 17 16 16 16 13 3 4 5 6 5 3 6 3 4 6 8 9 5 5 4 2 5 2 4 5 4 5 5 7 5 8 4 8 18 10 9 6 14 12 12 10 11
23 21 18 18 16 12 9 1 3 1 2 8 6 5 7 6 3 3 6 7 3 2 2 2 3 6 10 9 8 5 5 12 14 16 4 13 17 11 9 8 11 11 9 11 12
25 22 21 18 17 15 2 1 4 2 9 15 16 11 10 4 5 5 7 6 5 6 3 5 8 10 5 6 8 8 12 14 12 15 6 9 11 14 6 7 8 10 9 11 5
25 22 22 20 19 3 3 6 0 4 2 7 6 6 7 10 8 8 9 5 5 5 6 7 10 1 4 7 7 7 7 9 12 7 5 2 7 8 5 5 6 6 4 5 9
26 24 21 20 1 1 4 1 5 3 4 7 4 6 6 6 5 9 11 7 3 11 7 7 10 10 11 6 3 3 4 7 7 2 7 3 11 10 7 7 5 8 7 8 7
27 25 19 7 3 2 1 6 4 4 3 2 2 2 5 8 2 3 4 4 10 10 8 12 5 6 6 8 3 7 4 5 4 4 2 3 1 11 3 7 10 9 9 6 10
29 25 15 1 2 7 8 6 4 4 4 1 3 4 4 3 3 5 4 2 5 6 4 6 1 2 3 2 5 3 3 2 1 3 3 6 7 11 12 9 6 4 8 9 12
30 29 8 2 3 3 4 4 4 3 5 3 4 2 4 2 3 4 4 4 5 3 3 0 2 2 1 2 2 8 6 5 5 2 12 5 4 18 6 8 6 5 10 12 12
32 28 7 5 2 5 3 5 3 3 3 0 1 2 4 2 2 3 2 2 5 4 3 2 6 2 2 3 5 1 6 5 7 5 8 6 8 7 6 2 2 1 6 8 10
28 4 3 3 6 1 5 3 4 2 7 7 4 2 1 1 3 7 4 1 1 3 3 2 4 3 1 4 7 4 5 4 3 1 2 5 8 10 6 1 3 7 9 11 9
7 5 4 1 5 5 5 3 3 3 7 4 3 1 1 2 2 4 2 2 4 2 3 3 3 4 3 1 5 5 3 2 2 4 5 4 4 9 11 6 4 5 4 6 8
3 5 4 4 2 5 2 4 4 8 4 4 1 1 2 1 1 3 4 2 2 3 3 4 3 5 3 2 3 3 2 2 2 4 4 1 5 5 4 10 9 7 4 5 5
3 4 5 4 4 1 2 8 9 5 5 4 1 1 3 2 2 3 4 3 5 5 3 2 4 3 8 7 9 4 3 5 2 3 3 2 7 6 10 16 11 12 11 4 6
3 4 5 4 4 3 5 7 9 13 9 6 5 4 2 1 2 4 2 6 4 5 7 7 1 3 9 6 6 2 2 3 2 1 4 2 6 1 3 5 8 9 11 9 6
3 5 6 6 2 3 3 3 9 7 8 5 3 4 4 2 3 3 2 2 6 2 7 8 4 7 7 7 5 6 6 7 6 4 3 9 13 9 5 6 11 10 10 11 9
3 1 1 5 3 6 3 2 11 8 7 8 3 8 5 3 3 3 2 4 5 4 3 4 5 6 7 9 8 9 12 11 8 14 8 9 11 4 6 6 7 8 8 8 9
2 3 4 4 5 3 2 2 8 5 2 6 5 10 7 5 6 5 4 4 6 1 2 1 3 1 5 10 7 9 5 9 7 5 10 13 12 4 6 5 6 8 11 13 13
3 3 1 4 4 4 3 2 7 7 6 10 13 12 13 14 9 9 7 6 6 7 4 3 4 2 5 4 8 4 1 2 4 5 5 5 4 6 9 8 7 8 14 16 17
Wind_Direction
330 328 324 323 319 318 312 311 312 312 314 312 312 312 313 313 315 297 238 220 188 237 326 320 224 192 141 208 190 104 112 224 214 193 249 294 304 141 276 261 309 203 277 239 143
333 329 325 320 316 312 310 309 307 307 307 309 310 316 318 324 297 236 240 221 215 201 150 184 170 156 171 194 196 136 172 225 218 231 268 278 252 305 320 296 289 302 258 153 136
336 332 328 323 320 315 312 308 306 306 305 304 311 322 320 329 291 250 240 203 207 212 249 144 167 108 184 132 208 189 220 214 242 232 241 268 284 252 256 280 247 267 276 300 114
337 335 332 327 322 318 314 309 305 304 303 304 310 319 318 34 108 331 86 173 181 146 142 176 140 111 222 202 223 249 251 237 265 234 244 250 270 268 237 257 258 270 245 228 205
337 337 336 330 325 320 315 310 305 303 300 301 305 312 12 5 256 297 116 149 148 133 181 157 115 153 208 226 137 204 253 270 267 270 254 262 266 262 264 267 269 269 268 203 216
338 338 338 334 327 322 315 310 302 297 294 291 286 310 191 290 239 166 127 126 157 165 182 157 197 198 282 256 168 224 259 260 275 269 260 256 266 259 275 240 248 255 251 190 207
340 339 337 335 330 321 313 306 292 287 285 270 241 237 263 236 5 178 155 182 184 185 180 213 201 196 145 292 209 255 285 315 230 231 263 171 287 255 247 239 229 256 263 245 219
337 338 338 333 328 320 311 302 291 284 277 227 222 215 246 238 272 173 177 289 229 216 249 242 198 210 177 242 1 3 82 304 274 257 258 156 259 278 262 217 237 251 263 260 255
333 335 337 334 328 321 313 302 290 279 223 176 154 216 267 311 220 212 168 232 43 223 237 270 205 156 33 66 5 355 260 273 306 209 223 190 270 259 282 276 246 242 244 248 255
332 334 334 333 329 322 317 307 132 117 146 187 255 321 269 177 223 179 188 213 241 303 11 111 49 62 35 71 248 267 298 287 286 287 177 271 274 273 274 256 271 271 236 235 239
330 331 331 328 326 326 338 31 21 358 221 210 210 253 289 280 291 206 157 136 223 127 182 12 65 234 234 207 231 238 259 264 279 278 277 273 272 276 267 290 291 286 227 229 233
325 326 325 322 320 315 202 170 208 266 299 227 240 236 257 39 331 303 120 156 147 214 117 10 252 244 227 232 230 243 258 273 272 260 190 251 260 278 243 256 266 272 229 224 247
323 321 316 318 320 124 188 234 201 267 282 293 193 205 230 150 214 246 163 160 175 206 188 190 238 286 258 281 274 256 238 269 263 276 258 251 283 285 277 267 279 268 237 270 239
323 321 319 320 225 298 249 180 322 191 35 274 225 254 156 175 255 201 180 147 206 219 163 232 253 233 259 241 227 264 281 279 266 225 259 151 274 278 272 272 258 273 272 272 254
323 325 323 303 307 197 240 336 311 64 348 157 169 131 134 157 256 233 131 80 198 206 131 229 197 196 241 252 176 234 303 284 299 261 10 242 193 280 249 272 267 278 294 273 238
326 328 336 80 178 252 311 319 63 46 254 73 117 160 116 251 283 0 173 96 235 220 229 232 301 113 225 263 224 322 314 293 62 129 244 248 183 270 269 236 232 230 291 294 300
326 322 316 218 237 315 306 46 48 174 320 52 41 338 203 297 81 23 337 0 215 183 226 0 256 294 201 25 70 50 40 320 296 254 250 168 213 243 283 275 247 277 296 305 279
325 316 198 217 266 339 55 61 203 249 18 199 236 307 114 21 307 313 52 3 12 71 97 160 315 16 31 129 205 160 166 189 271 248 275 339 242 263 256 325 81 16 336 334 334
322 326 290 264 191 190 71 106 218 254 351 314 331 356 34 43 31 25 343 157 67 49 133 149 265 293 154 189 143 188 198 161 221 252 299 242 300 293 292 236 5 51 26 2 9
322 334 289 59 163 63 72 238 255 293 323 298 237 160 224 42 76 24 265 211 157 215 142 190 270 255 298 135 240 171 143 242 251 225 209 264 254 248 327 314 317 0 58 5 21
16 6 291 44 62 46 117 257 282 313 10 307 268 205 79 102 268 219 251 313 166 146 92 129 126 285 357 202 208 326 268 234 266 235 227 284 256 209 287 297 311 285 253 131 57
18 359 300 355 47 6 20 322 303 318 331 296 200 123 169 185 248 249 241 229 220 147 114 45 131 260 251 290 274 199 219 160 248 291 274 284 273 38 11 321 321 312 311 290 138
9 282 309 65 75 350 325 329 330 342 326 347 12 2 2 163 263 217 306 314 144 143 166 180 124 344 336 351 352 13 179 153 86 342 235 201 268 7 6 314 329 343 333 298 281
35 352 331 27 56 19 7 319 314 333 321 349 326 8 356 270 220 265 262 358 345 165 144 123 141 171 202 224 202 282 260 242 170 213 239 229 273 302 328 331 332 336 332 324 319
29 297 200 317 325 331 275 275 293 307 339 323 7 7 332 287 283 239 18 344 357 52 97 115 199 195 238 249 249 264 276 286 215 236 225 261 270 310 306 305 310 316 327 327 322
57 13 351 282 281 314 303 317 286 317 311 297 331 330 297 248 228 244 183 189 233 9 83 34 249 224 270 264 267 282 299 308 19 324 250 257 274 224 288 310 312 312 320 313 305
309 338 122 287 307 300 259 265 315 326 282 248 308 309 297 268 246 221 209 202 207 178 172 176 151 110 269 311 306 302 103 288 269 247 258 253 252 328 317 306 299 286 298 290 289